This is the latest recevied weather packets stored in our database for station/object KB4JAC-13. If no packets are shown the sender has not sent any weather packets the latest 10 day(s).
| Time | Temp. | Humidity | Pressure | Rain* | Wind** | Luminosity | Snow |
|---|---|---|---|---|---|---|---|
| 1788133504 | 28.89° C | 74% | 993.1 hPa | 0 mm | - | - | - |
| 1788132903 | 28.89° C | 73% | 993.2 hPa | 0 mm | - | - | - |
| 1788132302 | 30° C | 71% | 993.2 hPa | 0 mm | - | - | - |
| 1788131701 | 30.56° C | 68% | 993.1 hPa | 0 mm | - | - | - |
| 1788131100 | 31.67° C | 66% | 993 hPa | 0 mm | - | - | - |
| 1788130500 | 31.11° C | 68% | 993 hPa | 0 mm | - | - | - |
| 1788129899 | 30.56° C | 69% | 993 hPa | 0 mm | - | - | - |
| 1788129298 | 31.11° C | 61% | 993 hPa | 0 mm | - | - | - |
| 1788128697 | 31.67° C | 63% | 993.1 hPa | 0 mm | - | - | - |
| 1788128097 | 32.78° C | 62% | 992.9 hPa | 0 mm | - | - | - |
| 1788127496 | 32.22° C | 62% | 992.9 hPa | 0 mm | - | - | - |
| 1788126896 | 33.89° C | 57% | 993.2 hPa | 0 mm | - | - | - |
| 1788126295 | 35° C | 52% | 993.1 hPa | 0 mm | - | - | - |
| 1788125694 | 35° C | 49% | 993 hPa | 0 mm | - | - | - |
| 1788125094 | 34.44° C | 52% | 992.8 hPa | 0 mm | - | - | - |
| 1788124493 | 35.56° C | 50% | 993 hPa | 0 mm | - | - | - |
| 1788123892 | 35.56° C | 49% | 993.2 hPa | 0 mm | - | - | - |
| 1788123292 | 35.56° C | 49% | 993.3 hPa | 0 mm | - | - | - |
| 1788122691 | 36.11° C | 48% | 993.2 hPa | 0 mm | - | - | - |
| 1788122091 | 33.33° C | 53% | 993.6 hPa | 0 mm | - | - | - |
| 1788121490 | 35.56° C | 48% | 993.8 hPa | 0 mm | - | - | - |
| 1788120889 | 35° C | 52% | 993.5 hPa | 0 mm | - | - | - |
| 1788120288 | 34.44° C | 53% | 993.6 hPa | 0 mm | - | - | - |
| 1788119688 | 34.44° C | 54% | 993.9 hPa | 0 mm | - | - | - |
| 1788119088 | 34.44° C | 59% | 994 hPa | 0 mm | - | - | - |
* Rain since midnight (hover to see other rain measurements)
** Current wind speed in m/s (hover to see current wind gust speed)